Temperature
16 16 15 15 15 15 15 14 14 14 14 13 13 13 13 13 12 12 12 12 12 12 12 12 12 11 11 11 11 11 10 10 10 10 10 10 10 10 10 10 10 9 9
16 15 15 15 14 14 14 14 14 14 13 13 13 13 13 12 12 12 12 12 12 12 12 11 11 11 11 11 10 10 10 10 9 9 9 9 9 9 9 9 9 9 9
16 15 15 14 14 14 14 14 14 13 13 13 12 12 12 12 12 12 12 12 12 11 11 11 11 11 10 10 10 10 9 9 9 9 8 8 8 8 9 9 8 8 8
15 14 14 14 14 13 13 13 13 13 13 12 12 12 12 12 12 12 12 11 11 11 11 11 11 10 10 10 9 9 9 9 8 8 8 8 7 7 7 7 8 8 8
15 14 14 13 13 13 13 13 13 13 12 12 12 12 12 12 11 11 11 11 11 11 10 10 10 10 9 9 9 9 8 8 8 8 8 7 7 7 6 6 7 7 7
14 13 13 13 13 13 13 12 12 12 12 12 12 12 11 11 11 11 10 10 10 10 10 10 10 9 9 9 9 8 8 8 7 7 7 7 6 6 6 5 5 6 6
14 13 13 12 12 12 12 12 12 12 12 11 11 11 11 11 11 11 10 10 10 10 10 9 9 9 9 8 8 8 8 7 7 7 7 6 6 6 5 5 4 4 5
13 13 12 12 12 11 11 11 11 11 11 11 11 11 11 10 10 10 10 9 9 9 9 9 9 8 8 8 8 7 7 7 7 7 6 6 6 5 5 4 4 3 4
13 12 12 11 11 11 11 11 11 11 11 11 10 10 10 10 10 9 9 9 9 9 9 8 8 8 8 7 7 7 7 6 6 6 6 5 5 5 4 4 3 3 3
12 12 11 11 11 11 11 11 11 10 10 10 10 10 9 9 9 9 9 9 8 8 8 8 8 7 7 7 7 6 6 6 6 6 5 5 5 4 4 3 3 3 2
12 11 11 10 10 10 10 10 10 10 9 9 9 9 9 9 9 8 8 8 8 8 8 7 7 7 6 6 6 6 6 5 5 5 5 4 4 4 3 3 3 2 2
11 11 10 10 10 10 9 9 9 9 9 9 8 8 8 8 8 8 8 7 7 7 7 7 6 6 6 6 6 5 5 5 5 5 4 4 4 3 3 3 2 2 2
11 10 10 9 9 9 9 9 8 8 8 8 8 8 8 8 7 7 7 7 7 7 6 6 6 6 6 5 5 5 5 5 4 4 4 3 3 3 2 2 2 2 1
10 9 9 8 8 8 8 8 8 8 8 7 7 7 7 7 7 7 6 6 6 6 6 6 6 5 5 5 5 4 4 4 4 3 3 3 2 2 2 2 1 1 1
9 8 8 8 7 7 7 7 7 7 7 7 7 7 6 6 6 6 6 6 5 5 5 5 5 5 5 4 4 4 4 3 3 3 2 2 2 1 1 1 1 1 0
8 8 7 7 7 7 6 6 6 6 6 6 6 6 5 5 5 5 5 5 5 4 4 4 4 4 4 4 3 3 3 3 2 2 2 2 1 1 1 1 0 0 -0
7 7 7 6 6 6 6 6 6 5 5 5 5 5 5 5 4 4 4 4 4 4 4 4 4 3 3 3 3 2 2 2 2 1 1 1 1 0 0 -0 -0 -0 -1
6 6 6 6 6 5 5 5 5 5 5 5 4 4 4 4 4 4 4 3 3 3 3 3 3 3 3 2 2 1 1 1 1 0 0 -0 -0 -0 -0 -1 -1 -1 -1
5 5 5 5 5 5 5 4 4 4 4 4 4 4 4 4 3 3 3 3 3 3 2 2 2 2 2 2 1 1 1 0 0 -0 -0 -1 -1 -1 -1 -1 -1 -1 -1
4 4 4 4 4 4 4 4 4 4 3 3 3 3 3 3 3 3 2 2 2 2 2 1 1 1 1 1 0 0 -0 -0 -0 -1 -1 -1 -1 -1 -1 -1 -1 -1 -2
3 3 4 4 3 3 3 3 3 3 3 3 2 2 2 2 2 2 2 1 1 1 1 1 0 0 0 -0 -0 -1 -1 -1 -1 -1 -1 -2 -2 -2 -2 -2 -2 -2 -2
3 3 3 3 2 2 2 2 2 2 2 2 2 2 2 1 1 1 1 1 0 0 -0 -0 -0 -1 -1 -1 -1 -1 -1 -2 -2 -2 -2 -2 -2 -2 -2 -2 -3 -3 -3
2 2 2 2 2 2 2 2 2 1 1 1 1 1 1 1 1 1 0 0 -0 -1 -1 -1 -1 -1 -2 -2 -2 -2 -2 -2 -2 -2 -2 -3 -3 -3 -3 -3 -3 -3 -3
1 1 1 1 1 1 1 1 1 0 1 1 1 0 0 0 -0 -0 -0 -1 -1 -1 -2 -2 -2 -2 -2 -2 -3 -3 -3 -3 -3 -3 -3 -3 -3 -3 -3 -3 -3 -3 -3
0 0 0 -0 -0 -0 -0 -0 -0 -0 0 0 -0 -0 -1 -1 -1 -1 -1 -1 -2 -2 -2 -2 -3 -3 -3 -3 -3 -3 -3 -3 -3 -3 -3 -4 -4 -3 -3 -3 -4 -4 -4
-1 -1 -1 -1 -1 -1 -1 -1 -1 -1 -1 -1 -1 -1 -1 -1 -2 -2 -2 -2 -2 -2 -3 -3 -3 -3 -3 -3 -3 -3 -3 -4 -4 -4 -4 -4 -4 -4 -4 -4 -4 -4 -5
Wind_Speed
7 7 7 6 6 6 7 7 7 7 6 5 5 5 4 3 3 3 4 4 4 4 3 2 1 1 1 1 1 1 1 2 2 2 3 4 4 3 2 2 2 2 3
6 6 7 6 6 6 6 7 7 7 6 6 5 4 4 3 3 3 3 4 4 4 3 3 2 1 1 1 0 1 1 1 2 1 2 3 3 3 2 2 2 3 3
7 7 7 6 6 6 6 6 6 6 6 6 5 4 3 3 2 3 2 2 4 4 4 3 2 2 2 2 1 0 1 1 1 1 0 1 2 3 3 3 3 3 3
6 6 6 6 6 6 6 6 6 6 6 7 7 7 6 5 4 4 3 3 3 3 3 3 3 2 2 1 1 0 0 1 1 2 1 2 2 3 4 3 3 4 5
6 6 6 5 5 6 6 6 6 6 6 7 7 7 5 4 3 3 4 4 3 3 3 3 3 2 1 1 1 0 0 1 1 1 2 3 3 3 4 6 5 4 4
6 6 6 5 4 5 6 6 6 6 6 7 7 7 7 6 5 4 4 4 3 2 3 3 3 2 2 1 1 1 1 1 1 2 1 1 2 3 3 6 7 7 5
7 7 7 6 6 6 6 6 7 6 6 6 6 7 7 7 7 5 5 4 3 2 3 3 2 2 2 1 1 1 1 1 2 2 2 2 3 3 3 5 7 7 6
6 7 7 6 6 7 7 7 7 6 6 6 6 5 6 5 5 5 4 4 4 3 3 3 3 2 2 1 1 0 1 1 2 2 2 3 3 3 3 4 6 8 7
6 6 6 6 6 7 7 8 7 6 6 5 5 5 5 5 5 4 4 3 3 3 4 3 3 2 2 1 1 1 1 1 2 2 3 3 3 3 3 4 4 6 8
5 6 5 5 5 5 6 7 7 6 5 5 5 4 4 4 4 4 4 3 3 3 3 3 3 2 2 1 1 1 1 1 2 2 3 4 3 3 3 4 4 5 7
5 5 5 5 5 5 5 6 6 6 5 5 4 4 4 4 4 4 4 4 3 3 3 3 2 2 1 1 1 1 1 2 3 3 4 4 4 4 4 4 4 5 6
5 5 5 5 5 5 5 5 5 5 5 5 5 4 4 4 4 4 4 4 3 3 2 3 2 1 0 0 1 2 2 3 3 4 4 5 4 5 4 4 5 5 6
6 5 5 5 5 5 5 4 5 5 5 5 5 5 4 4 4 4 4 3 3 3 2 3 2 1 0 0 1 1 2 3 3 3 4 5 4 6 5 5 6 5 6
5 5 4 4 4 5 5 5 4 4 5 5 5 4 4 4 4 4 3 3 3 2 2 2 1 0 0 0 1 1 2 2 3 4 4 5 5 6 6 6 6 6 6
4 4 4 4 5 5 5 5 4 4 4 5 5 4 4 4 4 4 3 3 2 2 2 1 1 0 0 1 1 1 2 3 4 4 4 5 7 9 8 7 6 6 6
4 4 4 4 4 4 4 4 4 4 5 5 4 4 4 4 4 3 3 2 2 1 1 1 0 0 1 3 4 4 3 3 4 5 6 6 7 9 11 12 12 11 9
3 4 3 4 4 4 5 5 5 5 5 5 4 4 4 4 4 3 2 2 1 1 1 0 0 0 1 4 5 6 4 4 4 5 6 6 7 8 7 10 12 12 13
3 2 2 3 3 4 4 5 5 5 5 4 4 4 4 4 3 3 2 1 1 0 0 1 1 1 2 5 6 7 5 4 5 5 6 6 7 8 8 8 8 8 8
3 3 3 3 3 4 4 5 5 4 4 4 4 3 4 3 3 2 1 1 0 0 0 1 1 2 3 5 7 8 4 4 5 5 6 7 7 11 13 9 9 9 8
4 3 3 3 3 3 4 5 4 4 4 3 3 3 3 3 3 2 1 1 0 0 1 2 2 2 3 5 7 8 3 4 5 5 6 9 10 13 13 8 8 9 9
4 4 3 3 2 3 4 4 3 3 2 3 3 3 2 2 2 2 1 1 0 0 1 2 2 3 3 5 7 8 4 4 5 5 5 6 12 14 14 12 8 11 11
4 3 3 3 3 3 4 3 2 2 3 3 3 3 2 1 1 2 1 1 0 0 1 2 3 3 3 4 6 8 8 8 6 6 6 7 13 14 14 11 11 14 12
3 3 3 3 3 3 3 3 2 2 3 3 3 2 2 1 1 1 1 0 0 1 2 2 3 4 3 4 7 8 9 10 7 6 10 12 14 13 10 11 13 10 6
4 4 4 4 3 3 4 3 3 3 3 3 2 2 2 1 1 1 0 0 1 1 2 3 3 4 4 4 3 4 6 8 7 6 9 12 12 10 10 9 8 5 5
3 4 4 3 3 3 3 3 3 3 3 3 2 2 1 1 1 1 1 1 1 2 3 3 3 4 5 6 8 7 5 5 6 7 5 5 5 5 5 5 5 4 4
3 4 4 4 3 3 3 3 2 2 3 2 1 1 1 1 1 0 2 3 3 4 5 5 6 5 7 9 10 10 10 11 10 6 4 5 5 5 5 5 5 5 5
Wind_Direction
184 172 168 160 159 164 165 164 163 167 160 160 162 162 164 159 146 136 129 129 128 126 117 122 122 107 127 122 83 40 349 344 351 341 317 302 282 262 258 271 285 289 282
180 168 164 162 169 169 163 160 160 163 161 162 165 162 155 153 147 135 126 125 125 126 129 135 149 144 130 111 90 70 26 331 6 4 327 314 312 299 295 298 289 291 289
183 174 171 170 168 170 167 162 160 160 160 154 145 138 125 119 125 149 162 143 129 134 135 144 149 150 149 165 197 158 127 289 315 15 63 307 275 302 285 283 297 309 305
176 169 168 167 168 168 159 156 157 156 156 154 157 160 166 171 181 171 162 145 127 128 135 139 140 146 146 155 193 186 194 162 266 301 283 258 280 296 299 294 297 306 301
176 170 168 166 163 154 151 153 150 150 152 159 164 166 168 169 160 151 151 153 148 141 136 135 134 135 139 146 147 132 293 215 225 257 287 295 307 289 280 290 300 300 288
172 166 159 154 152 144 146 151 153 156 157 161 165 167 168 165 161 165 166 166 163 156 151 142 141 137 138 158 186 206 219 237 251 258 265 273 280 286 281 284 296 296 290
167 164 159 158 157 154 157 158 158 162 163 163 167 168 168 167 170 173 172 167 166 165 172 151 144 144 149 166 202 209 238 248 246 250 260 265 266 273 276 281 289 291 290
163 164 161 162 161 163 162 160 161 163 166 166 168 163 163 166 169 169 167 167 167 170 168 159 152 162 161 166 160 201 240 263 251 261 262 266 267 265 264 268 282 291 288
158 154 153 156 161 164 163 161 161 160 160 158 155 153 155 156 159 155 149 152 156 160 157 153 151 150 147 150 173 221 248 270 264 262 265 270 272 271 271 271 268 271 285
150 147 147 148 151 154 152 150 150 151 149 147 153 151 150 151 144 137 143 149 146 142 141 141 150 148 148 170 185 223 238 259 272 266 266 269 271 271 269 268 270 266 270
148 144 144 137 136 131 131 140 144 142 140 142 144 139 136 128 122 128 135 135 127 123 131 139 134 131 154 199 213 248 259 262 274 278 276 276 274 274 273 272 271 270 269
139 135 133 127 127 127 128 131 135 136 138 137 130 128 126 127 127 122 122 118 117 115 122 128 111 99 61 278 248 263 275 267 273 279 284 286 290 287 284 280 276 272 268
118 120 124 128 130 130 127 128 128 129 128 126 125 124 127 128 124 118 115 114 115 115 109 104 112 113 127 313 303 295 295 293 292 293 288 287 289 289 286 283 279 278 283
114 116 126 133 130 126 121 121 120 121 125 126 127 127 126 121 117 113 112 114 117 114 109 111 118 136 251 259 295 303 302 301 299 294 288 284 280 280 283 284 280 282 285
116 121 125 126 124 122 121 121 121 118 121 122 122 124 117 112 112 113 113 109 104 104 107 113 113 200 274 264 292 300 296 290 294 298 294 290 287 287 288 287 284 282 280
127 123 120 127 131 132 131 125 125 125 117 118 122 120 119 118 119 122 121 115 110 109 108 128 130 329 309 304 305 307 297 296 296 298 298 296 293 295 296 295 292 286 280
129 127 133 140 137 136 135 135 129 120 119 124 126 124 124 122 125 121 110 113 113 96 76 38 59 298 291 301 309 314 313 299 296 295 295 297 298 302 295 295 294 289 285
75 94 106 115 116 115 117 117 116 120 123 125 125 123 124 128 125 120 123 111 87 77 292 312 314 303 298 310 312 315 314 297 293 293 293 293 295 295 295 291 289 280 279
66 70 75 94 107 114 119 118 117 122 125 130 133 134 135 136 135 140 144 122 82 357 320 319 316 307 302 306 308 309 301 297 298 297 297 297 292 298 304 301 294 290 287
55 57 60 74 94 107 114 115 122 125 133 137 133 130 138 147 150 152 141 87 68 331 343 323 306 295 296 301 310 312 302 299 301 300 298 299 299 301 305 302 298 294 291
52 59 66 80 93 102 110 116 117 128 128 117 121 128 131 137 141 128 118 116 71 349 317 302 301 295 297 306 310 314 315 302 302 302 302 300 305 306 307 307 295 293 299
52 56 66 70 79 89 106 114 118 113 104 106 111 114 112 108 102 107 92 99 74 299 295 300 304 303 303 308 309 312 312 313 305 300 300 302 309 310 309 308 303 305 309
57 59 74 72 75 84 99 116 115 110 109 106 106 107 98 90 103 118 116 80 360 310 299 298 301 308 313 313 315 316 314 312 310 301 304 307 310 312 310 307 308 311 306
54 59 70 71 62 65 74 88 95 106 116 115 107 104 97 76 52 43 54 252 279 286 294 296 300 306 307 307 308 306 306 306 304 302 305 310 310 310 306 306 308 305 295
56 61 71 72 64 64 68 66 71 96 104 103 99 96 96 94 53 10 332 299 268 262 280 277 284 294 297 299 309 312 307 308 302 310 308 308 310 314 317 318 312 308 309
65 69 67 67 58 58 63 56 46 66 94 98 95 101 101 78 69 14 350 348 332 321 316 312 308 304 302 308 312 313 314 315 315 318 311 307 307 307 311 313 313 312 311
Height
1459 1462 1464 1466 1469 1471 1473 1475 1478 1480 1483 1485 1487 1490 1492 1494 1495 1497 1499 1500 1501 1502 1503 1504 1504 1505 1505 1505 1506 1506 1506 1505 1505 1504 1503 1503 1503 1502 1502 1501 1500 1500 1499
1456 1458 1460 1462 1464 1467 1469 1472 1474 1477 1479 1481 1484 1487 1489 1491 1493 1494 1496 1497 1498 1499 1500 1501 1501 1502 1503 1503 1503 1503 1503 1503 1502 1502 1501 1499 1499 1499 1499 1498 1497 1496 1495
1451 1453 1456 1458 1460 1463 1466 1468 1470 1473 1476 1478 1481 1484 1486 1488 1490 1491 1493 1494 1495 1496 1497 1498 1499 1499 1500 1500 1500 1500 1500 1500 1500 1500 1500 1499 1496 1494 1493 1494 1493 1492 1491
1447 1449 1452 1454 1457 1459 1463 1465 1467 1470 1472 1475 1478 1480 1482 1483 1485 1488 1489 1491 1492 1493 1494 1495 1496 1496 1497 1497 1497 1498 1498 1498 1497 1497 1497 1498 1496 1494 1489 1489 1489 1488 1487
1443 1445 1448 1451 1454 1456 1459 1462 1464 1466 1469 1471 1474 1476 1478 1480 1483 1485 1486 1488 1489 1490 1491 1492 1493 1493 1494 1494 1495 1495 1495 1495 1494 1494 1494 1493 1493 1492 1490 1485 1483 1483 1482
1439 1442 1445 1448 1450 1453 1455 1458 1461 1463 1466 1468 1471 1473 1475 1477 1479 1481 1483 1484 1485 1487 1488 1489 1489 1490 1491 1491 1491 1491 1492 1492 1491 1491 1490 1490 1489 1488 1486 1483 1480 1478 1477
1436 1438 1441 1444 1446 1449 1452 1454 1457 1460 1463 1465 1467 1470 1472 1474 1475 1477 1479 1480 1482 1483 1484 1485 1486 1486 1487 1488 1488 1488 1488 1488 1488 1487 1486 1486 1485 1484 1483 1481 1477 1474 1471
1433 1435 1438 1440 1443 1445 1448 1451 1454 1457 1460 1462 1464 1467 1469 1471 1472 1474 1476 1477 1478 1479 1480 1481 1482 1483 1484 1484 1484 1484 1484 1484 1484 1483 1482 1482 1481 1480 1479 1477 1475 1470 1466
1430 1433 1435 1437 1440 1443 1445 1448 1451 1454 1457 1459 1461 1463 1466 1467 1469 1471 1472 1474 1475 1476 1477 1478 1479 1479 1480 1480 1480 1480 1480 1480 1479 1479 1478 1477 1476 1475 1474 1473 1471 1469 1463
1429 1431 1434 1436 1438 1440 1443 1446 1448 1451 1454 1456 1458 1460 1462 1464 1466 1467 1469 1470 1471 1473 1474 1474 1475 1475 1476 1477 1477 1477 1476 1476 1475 1474 1473 1472 1471 1470 1469 1467 1466 1464 1461
1427 1429 1432 1434 1436 1439 1441 1443 1446 1448 1451 1453 1455 1458 1460 1462 1463 1464 1466 1467 1468 1469 1470 1470 1471 1472 1472 1473 1473 1472 1472 1471 1470 1469 1468 1467 1466 1464 1463 1462 1460 1459 1456
1426 1428 1431 1433 1435 1437 1439 1441 1443 1446 1448 1451 1453 1455 1457 1458 1460 1461 1463 1464 1465 1466 1466 1466 1467 1468 1469 1469 1469 1468 1468 1467 1465 1464 1463 1462 1461 1459 1457 1456 1454 1452 1450
1425 1428 1430 1432 1434 1436 1437 1439 1441 1443 1446 1448 1450 1452 1454 1455 1457 1459 1460 1461 1462 1463 1463 1463 1464 1464 1465 1464 1464 1464 1463 1462 1461 1459 1458 1457 1455 1453 1451 1450 1448 1446 1444
1425 1427 1429 1431 1433 1434 1436 1438 1440 1442 1444 1446 1448 1450 1451 1453 1454 1456 1457 1458 1459 1460 1460 1460 1460 1461 1461 1460 1460 1459 1458 1457 1456 1454 1453 1451 1449 1447 1445 1443 1441 1439 1437
1425 1427 1428 1430 1432 1433 1435 1436 1438 1440 1442 1443 1445 1447 1448 1450 1452 1453 1454 1455 1456 1457 1457 1457 1457 1457 1457 1456 1456 1455 1454 1452 1450 1449 1447 1445 1444 1442 1440 1438 1435 1433 1431
1425 1426 1428 1430 1431 1432 1433 1434 1436 1438 1439 1441 1443 1444 1445 1447 1449 1450 1451 1452 1453 1453 1454 1454 1453 1453 1453 1452 1452 1451 1449 1447 1445 1443 1441 1440 1438 1436 1434 1432 1430 1428 1426
1424 1425 1426 1428 1429 1431 1432 1432 1434 1435 1437 1439 1440 1441 1443 1445 1446 1447 1449 1449 1450 1450 1450 1450 1450 1449 1449 1448 1447 1446 1444 1442 1440 1438 1436 1434 1432 1430 1428 1425 1424 1422 1420
1423 1424 1425 1427 1428 1429 1430 1431 1432 1434 1435 1436 1438 1439 1441 1442 1443 1445 1445 1446 1446 1446 1446 1446 1446 1445 1444 1444 1442 1441 1439 1437 1435 1433 1431 1429 1426 1424 1422 1420 1417 1415 1413
1423 1423 1424 1425 1426 1427 1428 1429 1430 1432 1433 1434 1435 1437 1438 1439 1440 1441 1442 1443 1443 1443 1442 1442 1441 1440 1439 1439 1438 1437 1434 1432 1430 1428 1426 1424 1421 1419 1417 1415 1412 1409 1407
1421 1422 1423 1424 1424 1426 1427 1428 1429 1430 1431 1432 1433 1435 1436 1437 1437 1438 1439 1439 1439 1439 1439 1438 1437 1437 1435 1434 1433 1432 1430 1427 1425 1423 1421 1419 1417 1414 1412 1410 1406 1403 1401
1420 1421 1421 1422 1423 1424 1425 1426 1427 1428 1429 1430 1431 1432 1433 1434 1435 1435 1436 1436 1436 1436 1435 1434 1434 1433 1432 1430 1429 1428 1426 1423 1421 1418 1416 1413 1411 1409 1407 1404 1401 1398 1396
1419 1419 1420 1420 1422 1423 1424 1424 1425 1427 1428 1429 1429 1430 1431 1432 1433 1433 1433 1433 1433 1432 1431 1430 1429 1429 1428 1427 1425 1423 1422 1420 1417 1414 1411 1409 1406 1404 1401 1399 1396 1393 1391
1418 1418 1418 1419 1420 1421 1422 1423 1424 1425 1426 1427 1428 1429 1429 1430 1430 1431 1430 1430 1430 1429 1428 1427 1426 1425 1424 1422 1421 1419 1417 1415 1413 1410 1407 1404 1402 1399 1396 1394 1391 1389 1386
1417 1417 1417 1418 1419 1420 1421 1422 1423 1424 1424 1425 1426 1426 1427 1428 1428 1428 1428 1427 1427 1426 1425 1424 1423 1421 1420 1418 1416 1414 1412 1410 1408 1405 1402 1400 1397 1394 1392 1389 1387 1384 1382
1417 1417 1417 1417 1418 1419 1420 1421 1422 1422 1422 1423 1424 1425 1425 1426 1426 1426 1426 1425 1425 1424 1423 1422 1420 1418 1416 1415 1413 1411 1408 1406 1403 1400 1398 1395 1392 1390 1387 1385 1383 1381 1378
1416 1416 1417 1417 1418 1418 1419 1419 1420 1421 1421 1421 1422 1422 1423 1423 1423 1423 1423 1422 1422 1421 1421 1419 1418 1415 1414 1411 1409 1407 1404 1402 1399 1397 1394 1391 1389 1386 1384 1381 1379 1377 1374